QPF
0.00 0.00 0.00 0.00 0.00 0.00 0.00 0.00 0.00 0.00 0.00 0.00 0.00 0.00 0.00 0.00 0.00 0.00 0.00 0.00 0.00 0.00 0.00 0.00 0.00 0.00 0.00 0.00 0.00 0.00 0.00 0.00 0.00 0.00 0.00 0.00 0.00 0.00 0.00 0.00 0.00 0.00 0.00 0.00
0.00 0.00 0.00 0.00 0.00 0.00 0.00 0.00 0.00 0.00 0.00 0.00 0.00 0.00 0.00 0.00 0.00 0.00 0.00 0.00 0.00 0.00 0.00 0.00 0.00 0.00 0.00 0.00 0.00 0.00 0.00 0.00 0.00 0.00 0.00 0.00 0.00 0.00 0.00 0.00 0.00 0.00 0.00 0.00
0.00 0.00 0.00 0.00 0.00 0.00 0.00 0.00 0.00 0.00 0.00 0.00 0.00 0.00 0.00 0.00 0.00 0.00 0.00 0.00 0.00 0.00 0.00 0.00 0.00 0.00 0.00 0.00 0.00 0.00 0.00 0.00 0.00 0.00 0.00 0.00 0.00 0.00 0.00 0.00 0.00 0.00 0.00 0.00
0.00 0.00 0.00 0.00 0.00 0.00 0.00 0.00 0.00 0.00 0.00 0.00 0.00 0.00 0.00 0.00 0.00 0.00 0.00 0.00 0.00 0.00 0.00 0.00 0.00 0.00 0.00 0.00 0.00 0.00 0.00 0.00 0.00 0.00 0.00 0.00 0.00 0.00 0.00 0.00 0.00 0.00 0.00 0.00
0.00 0.00 0.00 0.00 0.00 0.00 0.00 0.00 0.00 0.00 0.00 0.00 0.00 0.00 0.00 0.00 0.00 0.00 0.00 0.00 0.00 0.00 0.00 0.00 0.00 0.00 0.00 0.00 0.00 0.00 0.00 0.00 0.00 0.00 0.00 0.00 0.00 0.00 0.00 0.00 0.00 0.00 0.00 0.00
0.00 0.00 0.00 0.00 0.00 0.00 0.00 0.00 0.00 0.00 0.00 0.00 0.00 0.00 0.00 0.00 0.00 0.00 0.00 0.00 0.00 0.00 0.00 0.00 0.00 0.00 0.00 0.00 0.00 0.00 0.00 0.00 0.00 0.00 0.00 0.00 0.00 0.00 0.00 0.00 0.00 0.00 0.00 0.00
0.00 0.00 0.00 0.00 0.00 0.00 0.00 0.00 0.00 0.00 0.00 0.00 0.00 0.00 0.00 0.00 0.00 0.00 0.00 0.00 0.00 0.00 0.00 0.00 0.00 0.00 0.00 0.00 0.00 0.00 0.00 0.00 0.00 0.00 0.00 0.00 0.00 0.00 0.00 0.00 0.00 0.00 0.00 0.00
0.00 0.00 0.00 0.00 0.00 0.00 0.00 0.00 0.00 0.00 0.00 0.00 0.00 0.00 0.00 0.00 0.00 0.00 0.00 0.00 0.00 0.00 0.00 0.00 0.00 0.00 0.00 0.00 0.00 0.00 0.00 0.00 0.00 0.00 0.00 0.00 0.00 0.00 0.00 0.00 0.00 0.00 0.00 0.00
0.00 0.00 0.00 0.00 0.00 0.00 0.00 0.00 0.00 0.00 0.00 0.00 0.00 0.00 0.00 0.00 0.00 0.00 0.00 0.00 0.00 0.00 0.00 0.00 0.00 0.00 0.00 0.00 0.00 0.00 0.00 0.00 0.00 0.00 0.00 0.00 0.00 0.00 0.00 0.00 0.00 0.00 0.00 0.00
0.00 0.00 0.00 0.00 0.00 0.00 0.00 0.00 0.00 0.00 0.00 0.00 0.00 0.00 0.00 0.00 0.00 0.00 0.00 0.00 0.00 0.00 0.00 0.00 0.00 0.00 0.00 0.00 0.00 0.00 0.00 0.00 0.00 0.00 0.00 0.00 0.00 0.00 0.00 0.00 0.00 0.00 0.00 0.00
0.00 0.00 0.00 0.00 0.00 0.00 0.00 0.00 0.00 0.00 0.00 0.00 0.00 0.00 0.00 0.00 0.00 0.00 0.00 0.00 0.00 0.00 0.00 0.00 0.00 0.00 0.00 0.00 0.00 0.00 0.00 0.00 0.00 0.00 0.00 0.00 0.00 0.00 0.00 0.00 0.00 0.00 0.00 0.00
0.00 0.00 0.00 0.00 0.00 0.00 0.00 0.00 0.00 0.00 0.00 0.00 0.00 0.00 0.00 0.00 0.00 0.00 0.00 0.00 0.00 0.00 0.00 0.00 0.00 0.00 0.00 0.00 0.00 0.00 0.00 0.00 0.00 0.00 0.00 0.00 0.00 0.00 0.00 0.00 0.00 0.00 0.00 0.00
0.00 0.00 0.00 0.00 0.00 0.00 0.00 0.00 0.00 0.00 0.00 0.00 0.00 0.00 0.00 0.00 0.00 0.00 0.00 0.00 0.00 0.00 0.00 0.00 0.00 0.00 0.00 0.00 0.00 0.00 0.00 0.00 0.00 0.00 0.00 0.00 0.00 0.00 0.00 0.00 0.00 0.00 0.00 0.00
0.00 0.00 0.00 0.00 0.00 0.00 0.00 0.00 0.00 0.00 0.00 0.00 0.00 0.00 0.00 0.00 0.00 0.00 0.00 0.00 0.00 0.00 0.00 0.00 0.00 0.00 0.00 0.00 0.00 0.00 0.00 0.00 0.00 0.00 0.00 0.00 0.00 0.00 0.00 0.00 0.00 0.00 0.00 0.00
0.00 0.00 0.00 0.00 0.00 0.00 0.00 0.00 0.00 0.00 0.00 0.00 0.00 0.00 0.00 0.00 0.00 0.00 0.00 0.00 0.00 0.00 0.00 0.00 0.00 0.00 0.00 0.00 0.00 0.00 0.00 0.00 0.00 0.00 0.00 0.00 0.00 0.00 0.00 0.00 0.00 0.00 0.00 0.00
0.00 0.00 0.00 0.00 0.00 0.00 0.00 0.00 0.00 0.00 0.00 0.00 0.00 0.00 0.00 0.00 0.00 0.00 0.00 0.00 0.00 0.00 0.00 0.00 0.00 0.00 0.00 0.00 0.00 0.00 0.00 0.00 0.00 0.00 0.00 0.00 0.00 0.00 0.00 0.00 0.00 0.00 0.00 0.00
0.00 0.00 0.00 0.00 0.00 0.00 0.00 0.00 0.00 0.00 0.00 0.00 0.00 0.00 0.00 0.00 0.00 0.00 0.00 0.00 0.00 0.00 0.00 0.00 0.00 0.00 0.00 0.00 0.00 0.00 0.00 0.00 0.00 0.00 0.00 0.00 0.00 0.00 0.00 0.00 0.00 0.00 0.00 0.00
0.00 0.00 0.00 0.00 0.00 0.00 0.00 0.00 0.00 0.00 0.00 0.00 0.00 0.00 0.00 0.00 0.00 0.00 0.00 0.00 0.00 0.00 0.00 0.00 0.00 0.00 0.00 0.00 0.00 0.00 0.00 0.00 0.00 0.00 0.00 0.00 0.00 0.00 0.00 0.00 0.00 0.00 0.00 0.00
0.00 0.00 0.00 0.00 0.00 0.00 0.00 0.00 0.00 0.00 0.00 0.00 0.00 0.00 0.00 0.00 0.00 0.00 0.00 0.00 0.00 0.00 0.00 0.00 0.00 0.00 0.00 0.00 0.00 0.00 0.00 0.00 0.00 0.00 0.00 0.00 0.00 0.00 0.00 0.00 0.00 0.00 0.00 0.00
0.00 0.00 0.00 0.00 0.00 0.00 0.00 0.00 0.00 0.00 0.00 0.00 0.00 0.00 0.00 0.00 0.00 0.00 0.00 0.00 0.00 0.00 0.00 0.00 0.00 0.00 0.00 0.00 0.00 0.00 0.00 0.00 0.00 0.00 0.00 0.00 0.00 0.00 0.00 0.00 0.00 0.00 0.00 0.00
0.00 0.00 0.00 0.00 0.00 0.00 0.00 0.00 0.00 0.00 0.00 0.00 0.00 0.00 0.00 0.00 0.00 0.00 0.00 0.00 0.00 0.00 0.00 0.00 0.00 0.00 0.00 0.00 0.00 0.00 0.00 0.00 0.00 0.00 0.00 0.00 0.00 0.00 0.00 0.00 0.00 0.00 0.00 0.00
0.00 0.00 0.00 0.00 0.00 0.00 0.00 0.00 0.00 0.00 0.00 0.00 0.00 0.00 0.00 0.00 0.00 0.00 0.00 0.00 0.00 0.00 0.00 0.00 0.00 0.00 0.00 0.00 0.00 0.00 0.00 0.00 0.00 0.00 0.00 0.00 0.00 0.00 0.00 0.00 0.00 0.00 0.00 0.00
0.00 0.00 0.00 0.00 0.00 0.00 0.00 0.00 0.00 0.00 0.00 0.00 0.00 0.00 0.00 0.00 0.00 0.00 0.00 0.00 0.00 0.00 0.00 0.00 0.00 0.00 0.00 0.00 0.00 0.00 0.00 0.00 0.00 0.00 0.00 0.00 0.00 0.00 0.00 0.00 0.00 0.00 0.00 0.00
0.00 0.00 0.00 0.00 0.00 0.00 0.00 0.00 0.00 0.00 0.00 0.00 0.00 0.00 0.00 0.00 0.00 0.00 0.00 0.00 0.00 0.00 0.00 0.00 0.00 0.00 0.00 0.00 0.00 0.00 0.00 0.00 0.00 0.00 0.00 0.00 0.00 0.00 0.00 0.00 0.00 0.00 0.00 0.00
0.00 0.00 0.00 0.00 0.00 0.00 0.00 0.00 0.00 0.00 0.00 0.00 0.00 0.00 0.00 0.00 0.00 0.00 0.00 0.00 0.00 0.00 0.00 0.00 0.00 0.00 0.00 0.00 0.00 0.00 0.00 0.00 0.00 0.00 0.00 0.00 0.00 0.00 0.00 0.00 0.00 0.00 0.00 0.00
0.00 0.00 0.00 0.00 0.00 0.00 0.00 0.00 0.00 0.00 0.00 0.00 0.00 0.00 0.00 0.00 0.00 0.00 0.00 0.00 0.00 0.00 0.00 0.00 0.00 0.00 0.00 0.00 0.00 0.00 0.00 0.00 0.00 0.00 0.00 0.00 0.00 0.00 0.00 0.00 0.00 0.00 0.00 0.00
MSLP
1011.18 1011.49 1011.44 1011.42 1011.37 1011.29 1010.92 1010.84 1011.26 1012.14 1012.84 1013.34 1014.47 1015.87 1016.90 1017.49 1017.90 1018.30 1018.70 1018.93 1019.06 1018.88 1018.75 1018.50 1017.93 1017.17 1016.31 1015.56 1015.61 1015.47 1016.09 1016.78 1017.39 1017.93 1018.42 1018.70 1019.05 1019.02 1019.19 1019.20 1019.23 1019.42 1019.64 1019.85
1011.45 1011.57 1011.72 1011.68 1011.78 1011.72 1011.49 1011.46 1011.81 1012.64 1013.26 1013.99 1014.98 1016.31 1017.29 1018.02 1018.69 1019.11 1019.56 1019.80 1019.94 1019.81 1019.67 1019.39 1018.94 1018.13 1017.20 1016.51 1015.97 1016.00 1016.29 1016.79 1017.33 1017.81 1018.16 1018.39 1018.66 1018.76 1018.81 1018.90 1019.07 1019.23 1019.40 1019.56
1011.57 1012.14 1012.07 1012.08 1012.02 1012.03 1011.88 1012.03 1012.38 1012.78 1013.61 1014.12 1014.96 1016.41 1017.49 1018.37 1019.01 1019.59 1020.08 1020.46 1020.60 1020.66 1020.56 1020.34 1019.97 1019.48 1018.77 1018.04 1017.51 1017.11 1016.97 1017.09 1017.51 1017.91 1018.22 1018.47 1018.80 1019.03 1019.22 1019.19 1019.18 1019.10 1019.14 1019.31
1012.03 1012.41 1012.34 1012.35 1012.23 1012.33 1012.54 1012.86 1012.98 1013.35 1014.02 1014.20 1014.81 1016.32 1017.35 1018.38 1019.35 1020.17 1020.89 1021.13 1021.44 1021.38 1021.33 1021.15 1020.94 1020.68 1020.23 1019.75 1019.03 1018.53 1018.30 1018.33 1018.38 1018.37 1018.77 1019.02 1019.50 1019.73 1019.51 1019.28 1019.25 1019.21 1019.05 1019.19
1012.85 1012.68 1012.65 1012.63 1013.03 1012.95 1013.32 1013.33 1013.47 1013.77 1014.25 1014.67 1015.09 1016.26 1017.19 1018.16 1019.59 1020.61 1021.36 1021.66 1021.99 1022.04 1022.06 1022.00 1021.82 1021.68 1021.35 1020.97 1020.66 1020.22 1019.92 1019.71 1019.58 1019.46 1019.56 1019.71 1019.97 1019.88 1019.60 1019.50 1019.47 1019.46 1019.24 1019.08
1013.01 1013.19 1013.26 1013.22 1013.42 1013.55 1013.80 1013.95 1014.08 1014.31 1014.75 1014.93 1014.57 1015.72 1017.53 1018.08 1019.00 1020.61 1021.57 1022.02 1022.36 1022.54 1022.69 1022.64 1022.64 1022.44 1022.21 1021.91 1021.65 1021.41 1021.32 1021.25 1021.00 1020.78 1020.63 1020.57 1020.65 1020.60 1020.51 1020.45 1020.37 1020.11 1019.76 1019.43
1013.43 1013.42 1013.60 1013.68 1013.70 1013.91 1014.14 1014.19 1014.44 1015.16 1015.25 1014.91 1014.66 1015.89 1017.72 1018.54 1019.34 1020.48 1021.63 1022.35 1022.77 1023.00 1023.24 1023.27 1023.18 1023.20 1023.18 1022.85 1022.59 1022.32 1022.24 1022.19 1021.98 1021.86 1021.64 1021.44 1021.33 1021.26 1021.40 1021.31 1021.18 1020.94 1020.62 1020.34
1014.19 1014.36 1014.06 1014.02 1013.94 1014.18 1014.11 1014.52 1014.80 1014.82 1014.97 1015.43 1015.74 1016.84 1018.49 1019.34 1020.18 1020.94 1021.84 1022.57 1022.98 1023.35 1023.63 1023.72 1023.71 1023.77 1023.67 1023.55 1023.40 1023.23 1023.09 1022.97 1022.68 1022.53 1022.41 1022.23 1022.06 1021.93 1021.84 1021.76 1021.65 1021.48 1021.28 1021.01
1015.76 1015.04 1014.85 1014.64 1014.68 1014.83 1014.60 1014.72 1015.14 1015.39 1015.13 1015.54 1016.13 1018.21 1019.12 1020.02 1020.97 1021.49 1022.17 1022.85 1023.38 1023.66 1023.88 1024.05 1024.11 1024.16 1024.19 1024.14 1024.05 1023.94 1023.87 1023.73 1023.41 1023.18 1023.02 1022.88 1022.68 1022.53 1022.43 1022.28 1022.12 1021.94 1021.68 1021.30
1016.91 1016.11 1015.28 1015.44 1015.24 1015.13 1015.21 1015.59 1015.51 1015.84 1016.35 1016.45 1016.06 1017.76 1019.14 1020.06 1021.01 1021.84 1022.39 1023.09 1023.58 1023.85 1024.04 1024.22 1024.36 1024.55 1024.59 1024.63 1024.69 1024.56 1024.43 1024.43 1024.27 1023.89 1023.61 1023.49 1023.35 1023.15 1022.99 1022.80 1022.58 1022.34 1022.04 1021.66
1017.89 1017.01 1016.16 1015.89 1015.99 1015.87 1015.83 1015.83 1016.24 1016.52 1016.79 1017.16 1017.72 1019.16 1019.23 1019.90 1020.64 1021.66 1022.46 1023.20 1023.65 1023.99 1024.30 1024.47 1024.56 1024.75 1024.89 1025.13 1025.21 1025.25 1025.14 1025.14 1024.98 1024.69 1024.33 1024.08 1023.91 1023.75 1023.58 1023.39 1023.13 1022.81 1022.43 1022.08
1019.28 1018.83 1017.70 1017.04 1017.14 1016.97 1016.95 1017.12 1017.25 1017.83 1017.99 1018.00 1018.59 1019.76 1019.80 1019.66 1020.31 1021.31 1022.46 1023.26 1023.86 1024.19 1024.38 1024.60 1024.86 1025.15 1025.36 1025.52 1025.63 1025.73 1025.73 1025.68 1025.57 1025.31 1025.04 1024.81 1024.66 1024.48 1024.30 1024.10 1023.76 1023.23 1022.95 1022.48
1020.77 1019.35 1018.58 1018.21 1018.21 1017.85 1017.84 1018.47 1018.48 1018.73 1019.03 1019.30 1019.96 1020.58 1020.37 1020.26 1020.70 1021.47 1022.46 1023.23 1023.82 1024.25 1024.59 1024.93 1025.26 1025.62 1025.96 1026.07 1026.22 1026.25 1026.24 1026.22 1026.04 1025.78 1025.47 1025.25 1025.21 1025.15 1024.97 1024.70 1024.42 1023.96 1023.56 1023.09
1021.78 1020.45 1019.56 1019.36 1019.13 1019.29 1019.10 1019.33 1019.64 1019.93 1020.02 1019.89 1020.01 1020.68 1021.18 1021.16 1021.38 1021.98 1022.67 1023.30 1023.88 1024.44 1024.99 1025.50 1025.92 1026.23 1026.49 1026.55 1026.75 1026.82 1026.74 1026.57 1026.44 1026.17 1025.91 1025.75 1025.64 1025.55 1025.38 1025.14 1024.90 1024.56 1024.09 1023.69
1021.81 1021.29 1020.30 1020.07 1019.82 1019.91 1020.11 1020.27 1020.31 1020.66 1020.77 1021.01 1020.73 1021.32 1021.43 1021.55 1021.88 1022.33 1022.93 1023.58 1024.14 1024.72 1025.34 1025.91 1026.43 1026.71 1026.90 1027.00 1027.13 1027.17 1027.12 1026.95 1026.76 1026.57 1026.39 1026.16 1025.90 1025.77 1025.62 1025.43 1025.18 1024.94 1024.60 1024.16
1022.35 1022.08 1021.77 1020.99 1020.34 1020.76 1020.89 1020.96 1020.89 1021.07 1021.30 1021.48 1021.76 1022.12 1022.24 1022.37 1022.46 1022.99 1023.48 1023.98 1024.48 1025.04 1025.60 1026.29 1026.81 1027.13 1027.32 1027.41 1027.46 1027.46 1027.47 1027.30 1027.00 1026.92 1026.78 1026.55 1026.43 1026.25 1025.97 1025.66 1025.30 1025.10 1024.91 1024.51
1023.55 1023.05 1022.55 1022.03 1021.53 1021.40 1021.49 1021.28 1021.07 1021.54 1022.00 1022.30 1022.59 1023.04 1023.09 1023.27 1023.38 1023.63 1023.91 1024.21 1024.65 1025.18 1025.95 1026.66 1027.13 1027.43 1027.61 1027.67 1027.70 1027.77 1027.75 1027.46 1027.30 1027.20 1027.14 1027.06 1026.93 1026.65 1026.29 1025.87 1025.54 1025.26 1024.97 1024.67
1024.15 1024.12 1023.80 1023.23 1022.63 1022.45 1022.26 1022.02 1021.75 1022.04 1022.38 1022.84 1023.09 1023.37 1023.63 1023.83 1023.95 1024.09 1024.22 1024.52 1025.00 1025.56 1026.35 1027.02 1027.50 1027.71 1027.75 1027.80 1027.88 1027.92 1027.85 1027.67 1027.61 1027.64 1027.63 1027.51 1027.24 1026.89 1026.51 1026.13 1025.84 1025.56 1025.16 1024.81
1024.62 1024.64 1024.58 1024.10 1023.55 1022.43 1022.75 1022.67 1022.65 1022.79 1022.81 1022.97 1023.30 1023.69 1024.00 1024.15 1024.31 1024.53 1024.42 1024.21 1025.02 1025.91 1026.68 1027.31 1027.59 1027.70 1027.78 1027.91 1028.03 1028.23 1028.15 1028.02 1028.00 1028.12 1028.12 1027.77 1027.51 1027.27 1026.90 1026.55 1026.28 1025.94 1025.54 1024.99
1025.10 1025.18 1025.18 1024.77 1024.78 1023.77 1023.25 1023.32 1023.37 1023.54 1023.59 1023.42 1023.90 1024.27 1024.54 1024.74 1025.04 1025.07 1024.93 1025.08 1025.58 1026.25 1026.98 1027.51 1027.74 1027.77 1027.90 1028.12 1028.26 1028.42 1028.35 1028.29 1028.43 1028.48 1028.16 1027.97 1027.71 1027.40 1027.02 1026.77 1026.45 1026.11 1025.68 1025.20
1024.97 1025.21 1025.37 1025.36 1024.94 1023.64 1023.43 1023.72 1023.83 1024.42 1025.02 1024.45 1024.66 1024.95 1025.12 1025.35 1025.23 1025.01 1024.80 1025.18 1025.79 1026.55 1027.10 1027.60 1027.87 1027.81 1027.94 1028.11 1028.34 1028.50 1028.50 1028.57 1028.64 1028.41 1028.19 1028.03 1027.82 1027.56 1027.27 1027.05 1026.73 1026.49 1025.96 1025.65
1024.40 1024.73 1025.00 1025.09 1024.92 1024.13 1023.58 1024.01 1024.18 1024.37 1024.43 1024.74 1024.97 1025.16 1025.27 1025.35 1025.14 1024.99 1024.86 1025.30 1025.87 1026.52 1027.00 1027.44 1027.77 1027.84 1027.93 1028.07 1028.42 1028.61 1028.64 1028.61 1028.60 1028.41 1028.16 1027.84 1027.89 1027.60 1027.43 1027.29 1027.04 1026.66 1026.31 1025.98
1024.74 1024.31 1024.49 1024.38 1023.96 1023.55 1023.46 1023.49 1023.48 1023.66 1024.01 1024.47 1024.92 1025.04 1025.21 1025.32 1025.24 1025.13 1025.25 1025.50 1025.91 1026.40 1027.00 1027.40 1027.71 1027.89 1027.94 1028.02 1028.32 1028.63 1028.60 1028.58 1028.52 1028.31 1028.09 1027.82 1027.79 1027.60 1027.45 1027.36 1027.16 1026.95 1026.73 1026.46
1024.05 1023.94 1024.47 1024.29 1023.58 1023.43 1023.41 1023.30 1023.40 1023.57 1023.77 1024.13 1024.68 1025.02 1025.14 1025.29 1025.25 1025.18 1025.24 1025.50 1025.85 1026.31 1026.84 1027.22 1027.61 1027.87 1027.93 1028.03 1028.22 1028.47 1028.48 1028.54 1028.48 1028.25 1027.92 1027.69 1027.57 1027.46 1027.23 1027.22 1027.21 1027.27 1027.32 1027.11
1024.11 1024.15 1024.18 1024.18 1023.90 1023.55 1023.29 1023.12 1023.19 1023.52 1023.79 1024.15 1024.39 1024.63 1024.77 1024.91 1025.05 1025.17 1025.39 1025.65 1026.00 1026.33 1026.66 1027.03 1027.41 1027.66 1027.83 1028.01 1028.16 1028.29 1028.36 1028.51 1028.54 1028.19 1027.78 1027.52 1027.49 1027.36 1027.29 1027.20 1027.27 1027.39 1027.50 1027.43
1023.80 1023.46 1023.76 1023.34 1023.38 1023.46 1023.14 1023.08 1023.34 1023.62 1023.85 1024.09 1024.23 1024.30 1024.38 1024.51 1024.65 1025.04 1025.51 1025.82 1026.18 1026.42 1026.57 1026.82 1027.12 1027.36 1027.59 1027.80 1027.95 1028.15 1028.22 1028.39 1028.39 1028.20 1027.86 1027.61 1027.54 1027.37 1027.29 1027.26 1027.32 1027.24 1027.28 1027.29
Thickness
5726 5707 5703 5707 5711 5712 5713 5710 5705 5697 5704 5701 5685 5675 5672 5673 5670 5666 5663 5661 5661 5663 5665 5667 5671 5678 5684 5690 5690 5692 5688 5684 5680 5675 5672 5671 5670 5671 5672 5673 5673 5672 5672 5672
5711 5701 5709 5714 5711 5706 5707 5702 5697 5695 5698 5690 5679 5667 5668 5665 5660 5657 5654 5651 5651 5652 5653 5655 5659 5665 5673 5678 5685 5684 5683 5680 5677 5673 5671 5670 5669 5669 5669 5669 5668 5667 5667 5667
5699 5699 5709 5704 5702 5697 5700 5693 5689 5690 5688 5688 5678 5659 5656 5659 5656 5653 5649 5646 5644 5642 5642 5643 5645 5649 5654 5660 5665 5670 5672 5673 5671 5669 5667 5665 5663 5661 5659 5660 5661 5662 5663 5662
5701 5702 5699 5697 5695 5696 5683 5691 5690 5687 5673 5658 5679 5642 5650 5651 5643 5640 5633 5632 5630 5631 5633 5633 5633 5634 5637 5640 5647 5652 5655 5657 5658 5658 5656 5654 5650 5647 5652 5654 5655 5655 5656 5657
5685 5691 5691 5688 5682 5690 5677 5688 5684 5680 5668 5661 5662 5645 5638 5646 5636 5626 5623 5622 5620 5620 5620 5620 5621 5621 5623 5625 5627 5630 5633 5636 5638 5641 5640 5640 5640 5641 5644 5646 5646 5647 5648 5649
5689 5693 5687 5683 5684 5682 5681 5674 5671 5669 5656 5635 5662 5653 5630 5640 5636 5622 5617 5613 5612 5609 5608 5608 5608 5609 5609 5611 5612 5613 5614 5615 5618 5620 5622 5624 5624 5626 5627 5628 5630 5632 5636 5640
5682 5680 5682 5682 5672 5675 5669 5659 5637 5629 5627 5633 5665 5649 5626 5633 5630 5621 5609 5604 5602 5599 5597 5596 5596 5595 5595 5596 5598 5601 5600 5600 5601 5602 5605 5606 5608 5609 5609 5611 5612 5615 5618 5622
5663 5650 5670 5674 5669 5658 5661 5655 5633 5624 5628 5633 5653 5630 5613 5620 5614 5609 5603 5597 5593 5589 5586 5585 5585 5584 5584 5584 5584 5585 5586 5587 5588 5588 5589 5591 5592 5593 5595 5596 5597 5599 5601 5604
5645 5647 5661 5662 5662 5657 5652 5638 5650 5631 5643 5627 5629 5609 5610 5607 5600 5598 5593 5587 5582 5579 5576 5574 5573 5573 5572 5571 5572 5572 5572 5572 5574 5575 5576 5576 5578 5578 5579 5581 5583 5584 5587 5590
5644 5631 5657 5650 5653 5653 5643 5644 5625 5621 5607 5611 5629 5607 5595 5593 5590 5589 5583 5577 5574 5571 5569 5566 5564 5562 5560 5560 5559 5558 5559 5558 5557 5560 5562 5563 5563 5565 5566 5567 5568 5570 5573 5576
5635 5635 5638 5642 5636 5627 5629 5626 5625 5621 5615 5599 5595 5583 5600 5591 5587 5579 5575 5570 5564 5561 5558 5556 5555 5552 5550 5547 5545 5544 5544 5543 5543 5544 5547 5548 5549 5550 5551 5552 5553 5556 5559 5562
5616 5608 5612 5621 5622 5624 5622 5613 5612 5592 5594 5597 5592 5575 5587 5592 5585 5578 5568 5559 5553 5551 5548 5545 5543 5540 5536 5534 5532 5530 5529 5528 5528 5529 5531 5532 5533 5533 5534 5535 5537 5540 5544 5547
5594 5605 5598 5599 5604 5611 5607 5598 5599 5592 5588 5579 5570 5563 5577 5580 5574 5567 5556 5549 5544 5540 5536 5533 5528 5524 5520 5517 5515 5514 5513 5512 5512 5514 5516 5517 5517 5516 5517 5519 5520 5523 5526 5530
5580 5592 5593 5585 5586 5584 5588 5585 5583 5575 5563 5572 5571 5559 5560 5562 5558 5552 5545 5540 5534 5528 5523 5517 5510 5507 5504 5502 5499 5497 5497 5497 5496 5497 5499 5501 5501 5501 5501 5503 5504 5506 5510 5513
5576 5577 5588 5582 5583 5581 5573 5569 5570 5563 5562 5554 5564 5554 5553 5549 5547 5540 5533 5528 5521 5516 5510 5503 5495 5491 5488 5486 5483 5482 5480 5480 5480 5480 5480 5481 5483 5484 5484 5486 5487 5489 5491 5495
5565 5562 5563 5564 5574 5564 5557 5558 5558 5556 5551 5547 5545 5539 5535 5532 5529 5522 5517 5513 5508 5501 5496 5487 5480 5476 5471 5468 5466 5464 5462 5461 5463 5461 5461 5462 5462 5463 5465 5467 5470 5471 5472 5476
5547 5547 5550 5553 5556 5552 5544 5550 5551 5544 5536 5531 5525 5517 5520 5516 5514 5509 5503 5498 5493 5486 5477 5469 5462 5457 5453 5450 5448 5443 5442 5442 5442 5441 5440 5439 5439 5442 5444 5447 5450 5452 5454 5456
5537 5534 5530 5523 5539 5533 5531 5537 5537 5533 5528 5520 5515 5510 5505 5499 5496 5492 5489 5483 5475 5469 5460 5449 5441 5437 5434 5432 5428 5423 5421 5420 5419 5417 5415 5415 5417 5419 5422 5425 5429 5431 5434 5436
5523 5521 5515 5509 5519 5536 5519 5523 5520 5514 5513 5510 5504 5497 5493 5489 5485 5474 5474 5473 5459 5446 5437 5427 5420 5417 5413 5409 5404 5398 5397 5396 5394 5390 5389 5391 5392 5393 5396 5401 5403 5406 5410 5416
5512 5507 5499 5506 5499 5510 5505 5506 5504 5498 5471 5493 5488 5478 5472 5465 5442 5446 5453 5448 5439 5428 5415 5405 5399 5395 5390 5383 5377 5372 5371 5370 5364 5363 5365 5365 5366 5369 5373 5377 5380 5385 5390 5395
5496 5493 5472 5470 5471 5503 5497 5493 5489 5465 5454 5469 5466 5455 5449 5438 5435 5437 5434 5426 5418 5401 5393 5383 5375 5369 5364 5359 5351 5346 5344 5341 5338 5339 5340 5340 5341 5344 5348 5351 5356 5360 5366 5370
5499 5488 5477 5478 5473 5468 5487 5475 5465 5457 5458 5451 5442 5435 5430 5424 5422 5419 5416 5401 5393 5383 5372 5363 5352 5346 5342 5337 5330 5324 5322 5319 5317 5318 5318 5320 5317 5320 5323 5326 5331 5336 5341 5346
5467 5485 5460 5470 5470 5475 5472 5465 5464 5454 5445 5437 5425 5421 5414 5407 5402 5399 5390 5382 5371 5361 5350 5342 5335 5330 5327 5325 5320 5314 5312 5309 5306 5305 5304 5304 5302 5303 5304 5305 5309 5313 5318 5323
5481 5478 5453 5455 5471 5463 5457 5453 5447 5441 5434 5426 5415 5404 5397 5387 5382 5377 5371 5362 5353 5345 5337 5331 5326 5322 5320 5318 5314 5309 5306 5303 5299 5297 5297 5296 5295 5295 5297 5296 5297 5297 5298 5301
5464 5457 5454 5445 5445 5442 5439 5435 5433 5424 5416 5407 5399 5390 5382 5374 5366 5359 5352 5345 5339 5334 5330 5326 5321 5318 5314 5311 5307 5303 5299 5295 5291 5290 5291 5291 5291 5293 5294 5295 5294 5293 5292 5292
5451 5448 5431 5425 5435 5426 5425 5421 5414 5405 5396 5388 5381 5374 5367 5360 5354 5346 5338 5334 5329 5325 5324 5320 5316 5313 5309 5305 5301 5296 5293 5289 5285 5284 5286 5289 5291 5293 5294 5293 5291 5291 5291 5290